[[{"header":{"parameterUnit":"m.s-1","parameterCategory":1,"la1":30.2992,"la2":30.254,"lo1":-89.0895,"lo2":-89.0443,"dy":0.0025,"dx":0.0025,"nx":19,"ny":19,"refTime":"2026-03-26T03:00:00:Z","depth":0,"parameterNumber":2,"parameterNumberName":"U-component_of_WINDS"},"data":[0,0,0,-2.4372,-2.4374,-2.4469,-2.4469,-2.4604,-2.4605,0,0,0,0,0,0,0,0,0,0,0,-2.4351,-2.4352,-2.4372,-2.4374,-2.4469,-2.4469,-2.4603,-2.4605,0,0,0,0,0,0,0,0,0,0,0,-2.435,-2.4352,-2.4353,-2.4375,-2.4469,-2.4469,-2.4603,-2.4527,0,0,0,0,0,0,0,0,0,0,-2.4433,-2.442,-2.4351,-2.4353,-2.4375,-2.4469,-2.4469,-2.4523,-2.4532,-2.4566,0,-2.4598,0,-2.4604,-2.4615,-2.4615,0,0,0,-2.4369,-2.4413,-2.4432,-2.4353,-2.4376,-2.4469,-2.4425,-2.4528,-2.4538,-2.4578,-2.46,-2.4604,-2.4606,-2.4616,-2.4616,-2.4831,-2.4833,0,0,-2.4364,-2.4372,-2.4426,-2.4439,-2.4424,-2.4422,-2.4428,-2.4533,-2.4558,-2.46,-2.4607,-2.4608,-2.4617,-2.4618,-2.483,-2.4832,0,0,0,-2.4352,-2.4369,-2.4385,-2.4434,-2.445,-2.4425,-2.4431,-2.4554,-2.4558,-2.4609,-2.461,-2.4617,-2.4619,-2.4829,-2.4831,-2.4901,0,0,0,-2.4349,-2.4362,-2.4383,-2.4389,-2.4448,-2.4503,-2.445,-2.4551,-2.4563,-2.4609,-2.4618,-2.4621,-2.4827,-2.483,-2.4896,-2.4932,0,0,0,-2.4342,-2.4361,-2.4377,-2.4389,-2.443,-2.4501,-2.4511,-2.4553,-2.4564,-2.4615,-2.4621,-2.4827,-2.4829,-2.4891,-2.4925,-2.4992,0,0,0,-2.4338,-2.4438,-2.4378,-2.4491,-2.4429,-2.4544,-2.4511,-2.4595,-2.4648,-2.4618,-2.4828,-2.4831,-2.489,-2.4921,-2.4987,-2.5049,-2.5075,0,0,-2.4469,-2.4454,-2.452,-2.4469,-2.4596,-2.4528,-2.4666,-2.4706,-2.4704,-2.4789,-2.4794,-2.4898,-2.4925,-2.4991,-2.5222,-2.5243,0,0,0,-2.4564,-2.4611,-2.4643,-2.4693,-2.4727,-2.4759,-2.4777,-2.4793,-2.4865,-2.4749,-2.4939,-2.4955,-2.4994,-2.5023,-2.5041,-2.5073,-2.4844,-2.4844,-2.4844,-2.4761,-2.4752,-2.486,-2.4864,-2.4913,-2.4932,-2.4972,-2.4996,-2.4972,-2.5018,-2.5043,-2.5184,-2.5218,-2.5232,-2.5266,-2.5075,-2.5075,-2.5075,-2.5076,-2.4952,-2.5017,-2.4985,-2.5078,-2.5069,-2.5147,-2.517,-2.5151,-2.5223,-2.5164,-2.5197,-2.5134,-2.5255,-2.5285,-2.5081,-2.508,-2.5079,-2.5079,-2.5078,-2.508,-2.511,-2.5127,-2.5199,-2.5257,-2.5257,-2.5328,-2.5317,-2.5308,-2.5341,-2.5366,-2.5365,-2.5363,-2.5354,-2.5354,-2.5355,-2.5355,-2.5356,-2.5356,-2.5205,-2.5222,-2.5283,-2.5328,-2.5359,-2.54,-2.542,-2.5451,-2.5483,-2.547,-2.547,-2.5443,-2.5269,-2.5225,-2.5363,-2.5362,-2.5361,-2.536,-2.536,-2.5402,-2.5356,-2.5449,-2.5481,-2.5533,-2.5592,-2.5577,-2.5642,-2.5666,-2.5702,-2.5668,-2.5541,-2.5525,-2.5511,-2.5474,-2.5669,-2.5669,-2.5669,-2.5669,-2.5509,-2.55,-2.5594,-2.5646,-2.5695,-2.5692,-2.5799,-2.5817,-2.5828,-2.5843,-2.5814,-2.5765,-2.5751,-2.5743,-2.5724,-2.569,-2.5935,-2.5935,-2.5935,-2.5629,-2.5625,-2.5718,-2.5728,-2.5768,-2.5804,-2.5904,-2.5966,-2.5969,-2.5946,-2.5855,-2.5843,-2.5765,-2.5739,-2.5713,-2.5684,-2.5621,0,0]},{"header":{"parameterUnit":"m.s-1","parameterCategory":1,"la1":30.2992,"la2":30.254,"lo1":-89.0895,"lo2":-89.0443,"dy":0.0025,"dx":0.0025,"nx":19,"ny":19,"refTime":"2026-03-26T03:00:00:Z","depth":0,"parameterNumber":3,"parameterNumberName":"V-component_of_WINDS"},"data":[0,0,0,-0.0572,-0.0571,-0.0554,-0.0554,-0.0536,-0.0536,0,0,0,0,0,0,0,0,0,0,0,-0.058,-0.058,-0.0572,-0.0571,-0.0554,-0.0554,-0.0536,-0.0536,0,0,0,0,0,0,0,0,0,0,0,-0.058,-0.058,-0.058,-0.0571,-0.0554,-0.0554,-0.0536,-0.0548,0,0,0,0,0,0,0,0,0,0,-0.0564,-0.0574,-0.058,-0.058,-0.0571,-0.0554,-0.0554,-0.0548,-0.0547,-0.0546,0,-0.0546,0,-0.0541,-0.0535,-0.0535,0,0,0,-0.0569,-0.0575,-0.0568,-0.058,-0.0571,-0.0554,-0.0561,-0.0547,-0.0546,-0.0544,-0.0546,-0.0545,-0.054,-0.0535,-0.0535,-0.0536,-0.0536,0,0,-0.057,-0.0578,-0.0569,-0.0567,-0.057,-0.0562,-0.0561,-0.0547,-0.0549,-0.0546,-0.0544,-0.054,-0.0535,-0.0535,-0.0536,-0.0536,0,0,0,-0.0574,-0.0579,-0.0572,-0.0568,-0.0564,-0.0561,-0.056,-0.0549,-0.0546,-0.0544,-0.054,-0.0535,-0.0535,-0.0535,-0.0536,-0.0549,0,0,0,-0.0575,-0.0581,-0.0572,-0.0577,-0.0565,-0.0557,-0.0563,-0.0547,-0.0545,-0.054,-0.0535,-0.0535,-0.0535,-0.0535,-0.0548,-0.0554,0,0,0,-0.058,-0.0582,-0.058,-0.0578,-0.0571,-0.0557,-0.0553,-0.0547,-0.0543,-0.0535,-0.0535,-0.0535,-0.0535,-0.0547,-0.0553,-0.0556,0,0,0,-0.0588,-0.0593,-0.0581,-0.0585,-0.0571,-0.0565,-0.0553,-0.0548,-0.0543,-0.0535,-0.0535,-0.0536,-0.0547,-0.0552,-0.0555,-0.056,-0.0563,0,0,-0.0599,-0.0595,-0.0596,-0.0585,-0.0583,-0.0567,-0.0567,-0.0555,-0.0546,-0.054,-0.0539,-0.0548,-0.0553,-0.0556,-0.0575,-0.0577,0,0,0,-0.0603,-0.0604,-0.0602,-0.0597,-0.0587,-0.0579,-0.0566,-0.0561,-0.0555,-0.0545,-0.055,-0.0552,-0.0554,-0.0556,-0.0558,-0.0558,-0.0537,-0.0537,-0.0537,-0.0632,-0.062,-0.0621,-0.0607,-0.0603,-0.0588,-0.0583,-0.0574,-0.0565,-0.0566,-0.0564,-0.0577,-0.058,-0.0581,-0.0582,-0.0565,-0.0565,-0.0565,-0.0565,-0.0647,-0.0647,-0.0632,-0.0629,-0.0616,-0.0613,-0.0598,-0.0591,-0.0586,-0.0578,-0.0579,-0.0571,-0.0584,-0.0584,-0.0566,-0.0566,-0.0566,-0.0566,-0.0566,-0.0665,-0.0663,-0.0656,-0.0647,-0.0641,-0.0626,-0.0621,-0.061,-0.0599,-0.06,-0.0596,-0.0596,-0.0595,-0.0599,-0.0599,-0.0599,-0.0599,-0.0599,-0.0599,-0.0687,-0.0678,-0.0676,-0.0665,-0.0659,-0.0651,-0.0634,-0.0629,-0.0619,-0.0611,-0.0611,-0.0601,-0.0587,-0.0584,-0.06,-0.06,-0.06,-0.06,-0.06,-0.0708,-0.07,-0.0697,-0.0691,-0.0676,-0.067,-0.0655,-0.0644,-0.0637,-0.0635,-0.0624,-0.0616,-0.0611,-0.0609,-0.0606,-0.0627,-0.0627,-0.0627,-0.0627,-0.0723,-0.0719,-0.0711,-0.0703,-0.0694,-0.0679,-0.0674,-0.0661,-0.0646,-0.0641,-0.0636,-0.0631,-0.063,-0.0626,-0.0624,-0.0621,-0.0645,-0.0645,-0.0645,-0.0735,-0.0729,-0.0728,-0.0713,-0.0699,-0.0688,-0.0683,-0.0673,-0.0655,-0.0645,-0.0636,-0.0636,-0.0628,-0.0626,-0.0618,-0.0615,-0.061,0,0]}]]